Location: Cisewo
(53.3833°N, 14.9000°E)
Time: 12:18:27
(UTC+00:00)

FALCON 9 DEB - Pass Details

Date: 18 April 2021
Orbit: 422 x 435 km, 53.0° (Epoch: 14 May)

Event Time Altitude Azimuth Distance (km) Brightness Sun altitude
Rises 20:45:23 0° 247° (WSW) 2,390 7.0 -19.4°
Reaches altitude 10° 20:47:30 10° 244° (WSW) 1,527 6.0 -19.6°
Enters shadow 20:49:41 36° 230° (SW) 709 4.1 -19.8°
